SQ5AAG-2 Weather Reports


time (UTC)temp
C
wind
direction
speed
KPH
gust
KPH
rain 1hr
cm
rain 24hr
cm
rain mn
cm
humidity
%
barometer
mb
20260503184533 20 180 0.0 0.0 0.00 0.00 0.00 30 999.3
20260503184032 20 180 0.0 0.0 0.00 0.00 0.00 30 999.2
20260503183532 21 180 0.0 0.0 0.00 0.00 0.00 30 999.3
20260503183032 21 180 0.0 0.0 0.00 0.00 0.00 30 999.2
20260503182531 21 180 0.0 0.0 0.00 0.00 0.00 29 999.2
20260503182035 21 180 0.0 0.0 0.00 0.00 0.00 29 999.2
20260503181531 21 180 0.0 0.0 0.00 0.00 0.00 29 999.1
20260503181031 22 180 0.0 0.0 0.00 0.00 0.00 28 999.1
20260503180530 22 180 0.0 0.0 0.00 0.00 0.00 28 999.0
20260503180030 22 180 0.0 0.0 0.00 0.00 0.00 28 999.0
20260503175530 23 180 0.0 0.0 0.00 0.00 0.00 26 999.0
20260503175029 23 180 0.0 0.0 0.00 0.00 0.00 27 999.0
20260503174529 23 180 0.0 0.0 0.00 0.00 0.00 25 998.9
20260503174029 24 180 0.0 0.0 0.00 0.00 0.00 25 998.9
20260503173529 25 180 0.0 0.0 0.00 0.00 0.00 24 998.9
20260503173028 26 180 0.0 0.0 0.00 0.00 0.00 23 998.8
20260503172528 28 180 0.0 0.0 0.00 0.00 0.00 22 998.8
20260503172029 30 180 0.0 0.0 0.00 0.00 0.00 21 998.9
20260503171527 30 180 0.0 0.0 0.00 0.00 0.00 20 998.7
20260503171027 30 202 0.0 0.0 0.00 0.00 0.00 20 998.9
20260503170527 30 202 0.0 0.0 0.00 0.00 0.00 20 999.1
20260503150520 26 45 1.6 1.6 0.00 0.00 0.00 23 999.5
20260503131013 26 157 0.0 0.0 0.00 0.00 0.00 22 1000.6
20260503130513 26 180 0.0 0.0 0.00 0.00 0.00 23 1000.7
20260503120133 25 90 0.0 0.0 0.00 0.00 0.00 24 1001.2
20260503110630 25 22 0.0 0.0 0.00 0.00 0.00 25 1001.9
20260503110129 25 202 0.0 8.0 0.00 0.00 0.00 25 1002.1
20260503100126 23 202 3.2 4.8 0.00 0.00 0.00 27 1002.5
20260503090122 23 22 0.0 1.6 0.00 0.00 0.00 32 1003.0
20260503081620 22 202 0.0 0.0 0.00 0.00 0.00 34 1003.3
20260503081119 22 180 0.0 0.0 0.00 0.00 0.00 34 1003.3
20260503080619 22 112 0.0 0.0 0.00 0.00 0.00 34 1003.3
20260503080119 22 202 0.0 0.0 0.00 0.00 0.00 34 1003.3
20260503072618 21 180 0.0 0.0 0.00 0.00 0.00 36 1003.6
20260503072117 21 180 0.0 0.0 0.00 0.00 0.00 36 1003.6
20260503071616 21 202 0.0 4.8 0.00 0.00 0.00 36 1003.6
20260503071117 20 135 4.8 4.8 0.00 0.00 0.00 36 1003.6
20260503070616 20 90 0.0 3.2 0.00 0.00 0.00 37 1003.7
20260503070115 20 135 3.2 3.2 0.00 0.00 0.00 37 1003.6
20260503060112 23 112 0.0 0.0 0.00 0.00 0.00 34 1003.7
20260503055111 22 112 0.0 0.0 0.00 0.00 0.00 37 1003.8
20260503054611 22 112 0.0 0.0 0.00 0.00 0.00 37 1003.7
20260503054111 22 90 0.0 0.0 0.00 0.00 0.00 38 1003.9
20260503053610 21 90 0.0 0.0 0.00 0.00 0.00 38 1004.0
20260503053110 21 90 0.0 0.0 0.00 0.00 0.00 38 1003.7
20260503052611 21 90 0.0 0.0 0.00 0.00 0.00 38 1004.0
20260503052252 22 67 0.0 0.0 0.00 0.00 0.00 38 1004.1
20260503052109 21 90 0.0 0.0 0.00 0.00 0.00 38 1004.0
20260503051609 22 67 0.0 0.0 0.00 0.00 0.00 38 1004.1
20260503051109 22 67 0.0 0.0 0.00 0.00 0.00 38 1004.1
20260503050609 22 67 0.0 0.0 0.00 0.00 0.00 38 1004.0
20260503050108 22 67 0.0 0.0 0.00 0.00 0.00 39 1004.0
20260503045608 22 67 0.0 0.0 0.00 0.00 0.00 39 1004.0
20260503045108 22 67 0.0 0.0 0.00 0.00 0.00 41 1004.1
20260503044608 21 67 0.0 0.0 0.00 0.00 0.00 42 1004.2
20260503044107 21 67 0.0 0.0 0.00 0.00 0.00 43 1004.2
20260503043607 20 67 0.0 0.0 0.00 0.00 0.00 44 1004.1
20260503043109 20 67 0.0 0.0 0.00 0.00 0.00 45 1004.1
20260503042606 20 67 0.0 0.0 0.00 0.00 0.00 46 1004.0
20260503042106 20 67 0.0 0.0 0.00 0.00 0.00 46 1004.0
20260503041607 19 67 0.0 0.0 0.00 0.00 0.00 48 1004.0
20260503041105 18 67 0.0 0.0 0.00 0.00 0.00 50 1004.1
20260503040605 17 67 0.0 0.0 0.00 0.00 0.00 52 1003.9
20260503040106 17 67 0.0 0.0 0.00 0.00 0.00 54 1004.0
20260503035605 16 67 0.0 0.0 0.00 0.00 0.00 56 1004.1
20260503035104 15 67 0.0 0.0 0.00 0.00 0.00 58 1004.0
20260503034604 13 67 0.0 0.0 0.00 0.00 0.00 61 1003.9
20260503034104 12 67 0.0 0.0 0.00 0.00 0.00 63 1004.0
20260503033603 11 67 0.0 0.0 0.00 0.00 0.00 64 1004.0
20260503033103 11 67 0.0 0.0 0.00 0.00 0.00 62 1004.0
20260503032603 10 67 0.0 0.0 0.00 0.00 0.00 62 1003.9
20260503032102 10 67 0.0 0.0 0.00 0.00 0.00 61 1003.9
20260503031602 10 67 0.0 0.0 0.00 0.00 0.00 61 1003.9
20260503031102 10 67 0.0 0.0 0.00 0.00 0.00 60 1004.0
20260503030602 10 67 0.0 0.0 0.00 0.00 0.00 60 1003.9
20260503025601 10 67 0.0 0.0 0.00 0.00 0.00 59 1004.0
20260503025101 10 67 0.0 0.0 0.00 0.00 0.00 59 1004.0
20260503024600 10 67 0.0 0.0 0.00 0.00 0.00 59 1004.0
20260503024100 11 67 0.0 0.0 0.00 0.00 0.00 59 1004.1
20260503023600 11 67 0.0 0.0 0.00 0.00 0.00 58 1004.1
20260503023059 11 67 0.0 0.0 0.00 0.00 0.00 58 1004.0
20260503022559 11 67 0.0 0.0 0.00 0.00 0.00 58 1004.0
20260503022059 11 67 0.0 0.0 0.00 0.00 0.00 58 1004.1
20260503021559 11 67 0.0 0.0 0.00 0.00 0.00 58 1004.0
20260503021058 11 67 0.0 0.0 0.00 0.00 0.00 58 1004.1
20260503020558 11 67 0.0 0.0 0.00 0.00 0.00 58 1004.0
20260503020058 11 67 0.0 0.0 0.00 0.00 0.00 57 1004.0
20260503015557 11 67 0.0 0.0 0.00 0.00 0.00 57 1004.0
20260503015057 11 67 0.0 0.0 0.00 0.00 0.00 57 1004.0
20260503014557 11 67 0.0 0.0 0.00 0.00 0.00 57 1004.0
20260503014057 11 67 0.0 0.0 0.00 0.00 0.00 57 1004.0
20260503013556 11 67 0.0 0.0 0.00 0.00 0.00 57 1004.0
20260503013056 11 67 0.0 0.0 0.00 0.00 0.00 56 1004.1
20260503012556 11 67 0.0 0.0 0.00 0.00 0.00 56 1004.1
20260503012055 11 67 0.0 0.0 0.00 0.00 0.00 56 1004.1
20260503011555 11 67 0.0 0.0 0.00 0.00 0.00 55 1004.0
20260503011055 11 67 0.0 0.0 0.00 0.00 0.00 55 1004.0
20260503010555 11 67 0.0 0.0 0.00 0.00 0.00 55 1004.0
20260503010054 11 67 0.0 0.0 0.00 0.00 0.00 55 1004.2
20260503005554 12 67 0.0 0.0 0.00 0.00 0.00 54 1004.1
20260503005054 12 67 0.0 0.0 0.00 0.00 0.00 54 1004.0
20260503004553 12 67 0.0 0.0 0.00 0.00 0.00 53 1004.0
20260503004053 12 67 0.0 0.0 0.00 0.00 0.00 53 1004.0
20260503001103 12 67 0.0 0.0 0.00 0.00 0.00 52 1003.9
20260503000603 12 67 0.0 0.0 0.00 0.00 0.00 52 1004.1
20260502235602 13 67 0.0 0.0 0.00 0.00 0.00 52 1004.2
20260502235102 13 67 0.0 0.0 0.00 0.00 0.00 51 1004.1
20260502234601 13 67 0.0 0.0 0.00 0.00 0.00 51 1004.2
20260502234101 13 67 0.0 0.0 0.00 0.00 0.00 51 1004.2
20260502233601 13 67 0.0 0.0 0.00 0.00 0.00 51 1004.3
20260502233101 13 67 0.0 0.0 0.00 0.00 0.00 51 1004.3
20260502232603 12 67 0.0 0.0 0.00 0.00 0.00 51 1004.4
20260502232100 12 45 0.0 0.0 0.00 0.00 0.00 51 1004.3
20260502231600 12 45 0.0 0.0 0.00 0.00 0.00 51 1004.4
20260502231101 12 45 0.0 0.0 0.00 0.00 0.00 50 1004.4
20260502230559 12 45 0.0 0.0 0.00 0.00 0.00 50 1004.3
20260502230059 12 45 0.0 0.0 0.00 0.00 0.00 49 1004.3
20260502225559 12 45 0.0 0.0 0.00 0.00 0.00 49 1004.3
20260502225058 13 45 0.0 0.0 0.00 0.00 0.00 49 1004.5
20260502224558 13 45 0.0 0.0 0.00 0.00 0.00 48 1004.4
20260502224058 13 45 0.0 0.0 0.00 0.00 0.00 48 1004.4
20260502223557 13 45 0.0 0.0 0.00 0.00 0.00 48 1004.3
20260502223057 13 45 0.0 0.0 0.00 0.00 0.00 47 1004.2
20260502222557 13 45 0.0 0.0 0.00 0.00 0.00 47 1004.4
20260502222057 13 45 0.0 0.0 0.00 0.00 0.00 47 1004.5
20260502221556 13 45 0.0 0.0 0.00 0.00 0.00 47 1004.5
20260502221056 13 45 0.0 0.0 0.00 0.00 0.00 47 1004.6
20260502220556 13 45 0.0 0.0 0.00 0.00 0.00 47 1004.6
20260502220056 13 45 0.0 0.0 0.00 0.00 0.00 46 1004.5
20260502215555 14 45 0.0 0.0 0.00 0.00 0.00 46 1004.5
20260502215055 14 45 0.0 0.0 0.00 0.00 0.00 46 1004.5
20260502214554 14 45 0.0 0.0 0.00 0.00 0.00 46 1004.5
20260502214054 14 45 0.0 0.0 0.00 0.00 0.00 46 1004.6
20260502213554 14 45 0.0 0.0 0.00 0.00 0.00 46 1004.5
20260502213054 14 45 0.0 0.0 0.00 0.00 0.00 46 1004.5
20260502212553 14 45 0.0 0.0 0.00 0.00 0.00 45 1004.6
20260502212053 14 45 0.0 0.0 0.00 0.00 0.00 45 1004.6
20260502211553 14 45 0.0 0.0 0.00 0.00 0.00 45 1004.7
20260502211052 14 45 0.0 0.0 0.00 0.00 0.00 45 1004.5
20260502210552 14 45 0.0 0.0 0.00 0.00 0.00 44 1004.6
20260502210052 14 45 0.0 0.0 0.00 0.00 0.00 44 1004.6
20260502205552 15 45 0.0 0.0 0.00 0.00 0.00 43 1004.6
20260502205051 15 45 0.0 0.0 0.00 0.00 0.00 43 1004.7
20260502204551 15 45 0.0 0.0 0.00 0.00 0.00 42 1004.7
20260502204051 15 45 0.0 0.0 0.00 0.00 0.00 42 1004.7
20260502203550 15 45 0.0 0.0 0.00 0.00 0.00 42 1004.7
20260502203050 15 45 0.0 0.0 0.00 0.00 0.00 41 1004.7
20260502202550 15 45 0.0 0.0 0.00 0.00 0.00 41 1004.7
20260502202049 16 45 0.0 0.0 0.00 0.00 0.00 40 1004.7
20260502201549 16 45 0.0 0.0 0.00 0.00 0.00 40 1004.6
20260502201049 16 45 0.0 0.0 0.00 0.00 0.00 40 1004.6
20260502200549 16 45 0.0 0.0 0.00 0.00 0.00 39 1004.6
20260502200048 16 45 0.0 0.0 0.00 0.00 0.00 39 1004.6
20260502195548 16 45 0.0 0.0 0.00 0.00 0.00 39 1004.7
20260502195048 16 45 0.0 0.0 0.00 0.00 0.00 38 1004.6
20260502194547 16 45 0.0 0.0 0.00 0.00 0.00 38 1004.7
20260502194047 16 45 0.0 0.0 0.00 0.00 0.00 38 1004.7
20260502193547 17 45 0.0 0.0 0.00 0.00 0.00 37 1004.8
20260502193047 17 45 0.0 0.0 0.00 0.00 0.00 37 1004.9
20260502192546 17 45 0.0 0.0 0.00 0.00 0.00 37 1005.0
20260502192046 17 45 0.0 0.0 0.00 0.00 0.00 36 1005.0
20260502191630 17 45 0.0 0.0 0.00 0.00 0.00 36 1005.1
20260502191546 17 45 0.0 0.0 0.00 0.00 0.00 36 1005.1
20260502191046 17 45 0.0 0.0 0.00 0.00 0.00 36 1005.0
20260502190545 17 45 0.0 0.0 0.00 0.00 0.00 35 1005.0
20260502190045 18 45 0.0 0.0 0.00 0.00 0.00 34 1005.0
20260502185545 18 45 0.0 0.0 0.00 0.00 0.00 34 1005.0
20260502185045 18 45 0.0 0.0 0.00 0.00 0.00 33 1004.9